DW4159 Weather Reports


time (UTC)temp
C
wind
direction
speed
KPH
gust
KPH
rain 1hr
cm
rain 24hr
cm
rain mn
cm
humidity
%
barometer
mb
20260904140815 30 251 8.0 16.1 0.00 0.00 0.00 77 1014.4
20260904140314 30 190 6.4 16.1 0.00 0.00 0.00 78 1014.5
20260904135813 30 248 6.4 9.7 0.00 0.00 0.00 79 1014.3
20260904135308 30 234 6.4 12.9 0.00 0.00 0.00 80 1014.3
20260904134806 30 268 6.4 14.5 0.00 0.00 0.00 81 1014.3
20260904134305 30 235 6.4 14.5 0.00 0.00 0.00 81 1014.4
20260904133801 30 238 4.8 11.3 0.00 0.00 0.00 81 1014.3
20260904133258 30 217 6.4 9.7 0.00 0.00 0.00 82 1014.2
20260904132757 30 215 6.4 11.3 0.00 0.00 0.00 82 1014.1
20260904132258 29 176 6.4 11.3 0.00 0.00 0.00 82 1014.2
20260904131757 29 217 4.8 8.0 0.00 0.00 0.00 82 1014.2
20260904131256 29 116 3.2 8.0 0.00 0.00 0.00 83 1014.1
20260904130754 29 162 3.2 6.4 0.00 0.00 0.00 84 1014.0
20260904130304 28 261 3.2 6.4 0.00 0.00 0.00 85 1014.0
20260904125751 28 252 3.2 6.4 0.00 0.00 0.00 85 1014.0
20260904125252 28 224 3.2 4.8 0.00 0.00 0.00 85 1014.0
20260904124753 28 162 1.6 4.8 0.00 0.00 0.00 85 1014.0
20260904124520 28 153 1.6 3.2 0.00 0.00 0.00 86 1013.9
20260904124021 28 144 1.6 3.2 0.00 0.00 0.00 86 1013.9
20260904123243 28 146 1.6 4.8 0.00 0.00 0.00 86 1013.9
20260904122726 28 151 1.6 4.8 0.00 0.00 0.00 87 1013.9
20260904122217 28 132 0.0 3.2 0.00 0.00 0.00 87 1013.9
20260904121711 27 141 0.0 1.6 0.00 0.00 0.00 88 1013.9
20260904121213 27 129 0.0 1.6 0.00 0.00 0.00 88 1013.8
20260904120703 27 126 0.0 1.6 0.00 0.00 0.00 88 1013.7
20260904120151 27 120 0.0 1.6 0.00 0.00 0.00 89 1013.7
20260904115652 26 125 0.0 1.6 0.00 0.00 0.00 90 1013.6
20260904115353 26 126 0.0 3.2 0.00 0.00 0.00 91 1013.5
20260904114620 26 129 0.0 3.2 0.00 0.00 0.00 91 1013.5
20260904114121 26 125 0.0 1.6 0.00 0.00 0.00 91 1013.4
20260904113615 25 125 0.0 1.6 0.00 0.00 0.00 92 1013.4
20260904113051 25 125 0.0 1.6 0.00 0.00 0.00 92 1013.2
20260904112552 25 116 0.0 0.0 0.00 0.00 0.00 92 1013.3
20260904112305 25 115 0.0 0.0 0.00 0.00 0.00 92 1013.3
20260904111529 25 115 0.0 0.0 0.00 0.00 0.00 92 1013.3
20260904111019 25 116 0.0 0.0 0.00 0.00 0.00 92 1013.3
20260904110505 25 115 0.0 0.0 0.00 0.00 0.00 92 1013.2
20260904110234 25 116 0.0 0.0 0.00 0.00 0.00 92 1013.2
20260904105423 25 116 0.0 0.0 0.00 0.00 0.00 92 1013.1
20260904104920 25 115 0.0 0.0 0.00 0.00 0.00 93 1013.1
20260904104421 25 115 0.0 0.0 0.00 0.00 0.00 93 1013.0
20260904103921 25 115 0.0 0.0 0.00 0.00 0.00 93 1013.0
20260904103420 25 115 0.0 0.0 0.00 0.00 0.00 93 1013.0
20260904102919 25 115 0.0 0.0 0.00 0.00 0.00 93 1012.9
20260904102418 25 115 0.0 0.0 0.00 0.00 0.00 93 1012.8
20260904101917 25 115 0.0 0.0 0.00 0.00 0.00 92 1012.7
20260904101648 25 115 0.0 0.0 0.00 0.00 0.00 92 1012.7
20260904100917 25 115 0.0 0.0 0.00 0.00 0.00 92 1012.7
20260904100402 25 115 0.0 1.6 0.00 0.00 0.00 92 1012.7
20260904095859 25 115 0.0 1.6 0.00 0.00 0.00 92 1012.7
20260904095630 25 117 0.0 1.6 0.00 0.00 0.00 92 1012.5
20260904094848 25 119 0.0 0.0 0.00 0.00 0.00 92 1012.5
20260904094348 26 119 0.0 1.6 0.00 0.00 0.00 92 1012.4
20260904094110 25 119 0.0 1.6 0.00 0.00 0.00 92 1012.4
20260904093329 25 119 0.0 1.6 0.00 0.00 0.00 92 1012.4
20260904092821 26 119 0.0 1.6 0.00 0.00 0.00 92 1012.4
20260904092322 25 119 0.0 1.6 0.00 0.00 0.00 92 1012.3
20260904091816 25 119 0.0 1.6 0.00 0.00 0.00 92 1012.3
20260904091546 25 119 0.0 1.6 0.00 0.00 0.00 92 1012.2
20260904090811 25 119 0.0 1.6 0.00 0.00 0.00 91 1012.1
20260904090300 26 119 0.0 1.6 0.00 0.00 0.00 91 1012.2
20260904085736 26 119 0.0 0.0 0.00 0.00 0.00 91 1012.1
20260904085220 26 119 0.0 0.0 0.00 0.00 0.00 91 1012.2
20260904084712 26 119 0.0 0.0 0.00 0.00 0.00 91 1012.2
20260904084154 26 119 0.0 0.0 0.00 0.00 0.00 91 1012.3
20260904083628 26 119 0.0 0.0 0.00 0.00 0.00 91 1012.1
20260904083119 26 119 0.0 1.6 0.00 0.00 0.00 91 1012.2
20260904082545 26 119 0.0 1.6 0.00 0.00 0.00 91 1012.1
20260904082041 26 119 0.0 1.6 0.00 0.00 0.00 91 1012.1
20260904081532 26 120 0.0 1.6 0.00 0.00 0.00 91 1012.2
20260904081023 26 127 0.0 1.6 0.00 0.00 0.00 91 1012.2
20260904080521 26 128 0.0 1.6 0.00 0.00 0.00 91 1012.2
20260904080021 26 126 1.6 3.2 0.00 0.00 0.00 91 1012.1
20260904075517 26 127 1.6 3.2 0.00 0.00 0.00 91 1012.0
20260904075243 26 132 1.6 3.2 0.00 0.00 0.00 91 1012.0
20260904074512 26 130 0.0 3.2 0.00 0.00 0.00 91 1012.0
20260904074243 26 121 0.0 1.6 0.00 0.00 0.00 91 1011.9
20260904073514 26 125 0.0 1.6 0.00 0.00 0.00 91 1011.9
20260904073014 26 122 0.0 1.6 0.00 0.00 0.00 91 1011.9
20260904072500 26 125 1.6 3.2 0.00 0.00 0.00 91 1012.0
20260904072000 26 124 1.6 3.2 0.00 0.00 0.00 91 1012.0
20260904071942 26 119 0.0 1.6 0.00 0.00 0.00 91 1012.0
20260904071204 26 119 0.0 1.6 0.00 0.00 0.00 91 1012.0
20260904070425 26 119 0.0 3.2 0.00 0.00 0.00 91 1012.0
20260904070152 26 119 0.0 3.2 0.00 0.00 0.00 91 1012.1
20260904065420 26 120 0.0 0.0 0.00 0.00 0.00 91 1012.1
20260904064921 26 120 0.0 0.0 0.00 0.00 0.00 91 1012.1
20260904064416 26 120 0.0 0.0 0.00 0.00 0.00 91 1012.2
20260904063901 26 120 0.0 1.6 0.00 0.00 0.00 90 1012.3
20260904063341 26 120 0.0 1.6 0.00 0.00 0.00 90 1012.3
20260904062840 26 117 1.6 3.2 0.00 0.00 0.00 90 1012.2
20260904062836 26 119 0.0 1.6 0.00 0.00 0.00 90 1012.3
20260904061826 26 134 1.6 3.2 0.00 0.00 0.00 89 1012.3
20260904061324 26 132 1.6 3.2 0.00 0.00 0.00 89 1012.4
20260904060818 26 132 1.6 3.2 0.00 0.00 0.00 89 1012.5
20260904060314 26 131 1.6 3.2 0.00 0.00 0.00 89 1012.6
20260904055812 26 118 1.6 3.2 0.00 0.00 0.00 89 1012.6
20260904055312 26 119 1.6 4.8 0.00 0.00 0.00 89 1012.6
20260904054803 26 128 1.6 4.8 0.00 0.00 0.00 89 1012.8
20260904054232 26 118 1.6 3.2 0.00 0.00 0.00 89 1012.8
20260904053958 26 120 1.6 6.4 0.00 0.00 0.00 89 1012.8
20260904053226 26 114 3.2 6.4 0.00 0.00 0.00 89 1012.8
20260904052725 26 117 3.2 6.4 0.00 0.00 0.00 89 1012.7
20260904052218 26 117 3.2 6.4 0.00 0.00 0.00 89 1012.6
20260904051716 26 113 3.2 4.8 0.00 0.00 0.00 89 1012.5
20260904051215 26 105 3.2 6.4 0.00 0.00 0.00 89 1012.5
20260904050712 26 127 3.2 8.0 0.00 0.00 0.00 89 1012.6
20260904050442 26 120 4.8 8.0 0.00 0.00 0.00 89 1012.7
20260904045656 26 128 4.8 8.0 0.00 0.00 0.00 89 1012.7
20260904045156 26 111 4.8 8.0 0.00 0.00 0.00 89 1012.8
20260904044927 26 123 3.2 8.0 0.00 0.00 0.00 89 1012.9
20260904044149 26 132 3.2 8.0 0.00 0.00 0.00 90 1012.9
20260904043654 26 128 3.2 6.4 0.00 0.00 0.00 91 1013.0
20260904043650 26 98 3.2 4.8 0.00 0.00 0.00 90 1012.9
20260904042646 26 127 3.2 8.0 0.00 0.00 0.00 91 1012.9
20260904042142 26 112 3.2 8.0 0.00 0.00 0.00 91 1012.9
20260904041643 26 121 3.2 6.4 0.00 0.00 0.00 92 1013.0
20260904041138 26 117 1.6 6.4 0.00 0.00 0.00 92 1012.9
20260904040902 26 116 1.6 6.4 0.00 0.00 0.00 92 1012.9
20260904040402 26 113 1.6 4.8 0.00 0.00 0.00 93 1013.0
20260904035624 25 108 0.0 4.8 0.00 0.00 0.00 93 1013.0
20260904035356 25 91 0.0 1.6 0.00 0.00 0.00 93 1013.0
20260904034856 25 73 0.0 0.0 0.00 0.00 0.00 93 1013.1
20260904033624 25 69 0.0 0.0 0.00 0.00 0.00 93 1013.1
20260904033119 25 69 0.0 0.0 0.00 0.00 0.00 93 1013.2
20260904032542 25 69 0.0 0.0 0.00 0.00 0.00 92 1013.1
20260904032025 25 69 0.0 0.0 0.00 0.00 0.00 92 1013.0
20260904031524 25 69 0.0 0.0 0.00 0.00 0.00 92 1012.9
20260904031023 25 69 0.0 0.0 0.00 0.00 0.00 92 1013.0
20260904030510 25 69 0.0 0.0 0.00 0.00 0.00 92 1013.1
20260904025952 25 69 0.0 0.0 0.00 0.00 0.00 92 1013.1
20260904025449 25 69 0.0 0.0 0.00 0.00 0.00 92 1013.1
20260904024924 25 69 0.0 0.0 0.00 0.00 0.00 92 1013.0
20260904024421 25 69 0.0 0.0 0.00 0.00 0.00 92 1012.9
20260904024147 25 69 0.0 0.0 0.00 0.00 0.00 91 1013.0
20260904023417 25 69 0.0 0.0 0.00 0.00 0.00 91 1013.1
20260904022838 25 69 0.0 1.6 0.00 0.00 0.00 91 1013.2
20260904022335 25 64 0.0 1.6 0.00 0.00 0.00 91 1013.3
20260904021828 25 63 0.0 0.0 0.00 0.00 0.00 91 1013.3
20260904021329 25 64 0.0 0.0 0.00 0.00 0.00 91 1013.5
20260904020823 25 63 0.0 1.6 0.00 0.00 0.00 91 1013.5
20260904020322 25 63 0.0 1.6 0.00 0.00 0.00 91 1013.4
20260904015812 25 64 0.0 1.6 0.00 0.00 0.00 91 1013.4
20260904015301 25 63 0.0 0.0 0.00 0.00 0.00 91 1013.5
20260904014758 25 63 0.0 0.0 0.00 0.00 0.00 90 1013.5
20260904014237 25 63 0.0 0.0 0.00 0.00 0.00 90 1013.4
20260904013737 25 64 0.0 0.0 0.00 0.00 0.00 90 1013.4
20260904013223 25 63 0.0 0.0 0.00 0.00 0.00 90 1013.2
20260904012956 25 63 0.0 1.6 0.00 0.00 0.00 89 1013.2
20260904012223 25 63 0.0 1.6 0.00 0.00 0.00 89 1013.3
20260904011719 25 63 0.0 3.2 0.00 0.00 0.00 89 1013.3
20260904011206 25 50 0.0 3.2 0.00 0.00 0.00 89 1013.2
20260904010806 25 111 0.0 0.0 0.00 0.00 0.00 88 1013.2
20260904005649 25 113 0.0 1.6 0.00 0.00 0.00 88 1013.0
20260904005144 25 113 0.0 1.6 0.00 0.00 0.00 88 1012.9
20260904004623 25 113 0.0 4.8 0.00 0.00 0.00 88 1012.8
20260904004124 25 114 1.6 4.8 0.00 0.00 0.00 88 1012.6
20260904003624 25 117 1.6 4.8 0.00 0.00 0.00 88 1012.5
20260904003354 25 115 1.6 4.8 0.00 0.00 0.00 89 1012.5
20260904002623 25 115 0.0 3.2 0.00 0.00 0.00 89 1012.3
20260904002122 25 109 1.6 4.8 0.00 0.00 0.00 89 1012.3
20260904001607 25 116 1.6 4.8 0.00 0.00 0.00 89 1012.6
20260904001103 25 119 1.6 4.8 0.00 0.00 0.00 90 1012.7
20260904000603 25 97 0.0 3.2 0.00 0.00 0.00 90 1012.6
20260904000103 25 108 1.6 4.8 0.00 0.00 0.00 90 1012.5
20260903235824 25 97 3.2 8.0 0.00 0.00 0.00 90 1012.5
20260903235049 25 114 4.8 8.0 0.00 0.00 0.00 89 1012.5
20260903234545 25 109 3.2 8.0 0.00 0.00 0.00 89 1012.5
20260903234041 25 126 3.2 8.0 0.00 0.00 0.00 89 1012.4
20260903233537 25 108 3.2 6.4 0.00 0.00 0.00 89 1012.3
20260903233037 25 113 1.6 4.8 0.00 0.00 0.00 89 1012.3
20260903232539 25 113 1.6 3.2 0.00 0.00 0.00 90 1012.2
20260903232031 25 113 1.6 4.8 0.00 0.00 0.00 90 1012.1
20260903231531 25 150 1.6 4.8 0.00 0.00 0.00 90 1012.1
20260903231033 25 123 1.6 6.4 0.00 0.00 0.00 90 1012.2
20260903230515 25 116 1.6 6.4 0.00 0.00 0.00 90 1012.2
20260903230247 25 113 1.6 6.4 0.00 0.00 0.00 89 1012.2
20260903225513 25 101 1.6 4.8 0.00 0.00 0.00 89 1012.2
20260903225009 25 107 1.6 8.0 0.00 0.00 0.00 89 1012.2
20260903224518 25 113 4.8 9.7 0.00 0.00 0.00 88 1012.2
20260903224005 25 109 4.8 9.7 0.00 0.00 0.00 88 1012.4
20260903223516 25 115 3.2 8.0 0.00 0.00 0.00 87 1012.4
20260903223003 25 106 4.8 9.7 0.00 0.00 0.00 87 1012.4
20260903222455 25 120 4.8 9.7 0.00 0.00 0.00 87 1012.3
20260903222006 25 115 4.8 9.7 0.00 0.00 0.00 86 1012.3
20260903221448 25 118 4.8 8.0 0.00 0.00 0.00 85 1012.2
20260903220949 25 150 1.6 8.0 0.00 0.00 0.00 85 1012.1
20260903220447 25 101 1.6 3.2 0.00 0.00 0.00 87 1012.0
20260903220215 25 134 3.2 4.8 0.00 0.00 0.00 86 1012.0
20260903215445 25 134 3.2 6.4 0.00 0.00 0.00 85 1012.0
20260903214946 25 122 3.2 6.4 0.00 0.00 0.00 85 1012.0
20260903214715 25 155 3.2 6.4 0.00 0.00 0.00 86 1011.9
20260903213943 25 140 3.2 6.4 0.00 0.00 0.00 86 1011.9
20260903213443 25 177 3.2 4.8 0.00 0.00 0.00 86 1011.8
20260903212937 25 157 3.2 8.0 0.00 0.00 0.00 87 1011.8
20260903212437 25 155 4.8 9.7 0.00 0.00 0.00 86 1011.7
20260903211931 25 132 4.8 9.7 0.00 0.00 0.00 87 1011.8
20260903211430 25 129 3.2 8.0 0.00 0.00 0.00 86 1011.9
20260903210931 26 142 4.8 11.3 0.00 0.00 0.00 86 1011.9
20260903210701 26 180 9.7 19.3 0.00 0.00 0.00 85 1011.9
20260903205928 26 151 11.3 20.9 0.00 0.00 0.00 84 1011.8
20260903205424 26 129 14.5 20.9 0.00 0.00 0.00 83 1011.9
20260903204927 27 141 6.4 19.3 0.00 0.00 0.00 83 1011.1
20260903204923 27 219 11.3 20.9 0.00 0.00 0.00 81 1011.2
20260903203922 27 157 4.8 14.5 0.00 0.00 0.00 82 1011.1
20260903203418 28 179 11.3 17.7 0.00 0.00 0.00 81 1011.4
20260903202912 28 209 11.3 25.7 0.00 0.00 0.00 79 1011.5
20260903202408 30 250 8.0 25.7 0.00 0.00 0.00 78 1011.5
20260903201908 30 121 8.0 19.3 0.00 0.00 0.00 78 1011.3
20260903201408 30 115 8.0 19.3 0.00 0.00 0.00 78 1011.3
20260903201148 30 162 6.4 14.5 0.00 0.00 0.00 77 1011.4
20260903200404 30 109 8.0 17.7 0.00 0.00 0.00 76 1011.3
20260903195905 30 111 8.0 17.7 0.00 0.00 0.00 76 1011.4
20260903195403 30 116 8.0 17.7 0.00 0.00 0.00 77 1011.8
20260903194903 30 112 9.7 17.7 0.00 0.00 0.00 75 1011.8
20260903194400 30 118 8.0 17.7 0.00 0.00 0.00 75 1011.8
20260903193859 31 115 8.0 19.3 0.00 0.00 0.00 74 1011.4
20260903193629 31 121 4.8 19.3 0.00 0.00 0.00 73 1011.1
20260903192858 32 110 3.2 9.7 0.00 0.00 0.00 71 1011.0
20260903192359 32 82 3.2 11.3 0.00 0.00 0.00 71 1011.2
20260903192128 31 87 4.8 11.3 0.00 0.00 0.00 72 1011.5
20260903191356 31 104 6.4 16.1 0.00 0.00 0.00 71 1011.4
20260903190854 31 126 6.4 16.1 0.00 0.00 0.00 69 1011.5
20260903190354 32 118 6.4 16.1 0.00 0.00 0.00 69 1011.5
20260903185852 32 113 6.4 17.7 0.00 0.00 0.00 68 1011.7
20260903185353 32 110 6.4 17.7 0.00 0.00 0.00 68 1011.9
20260903185120 32 141 4.8 17.7 0.00 0.00 0.00 66 1012.0
20260903184350 32 72 4.8 9.7 0.00 0.00 0.00 66 1012.0
20260903183848 32 96 4.8 16.1 0.00 0.00 0.00 66 1012.0
20260903183618 32 86 6.4 16.1 0.00 0.00 0.00 67 1011.9
20260903182851 32 115 4.8 14.5 0.00 0.00 0.00 69 1011.8
20260903182338 32 83 4.8 16.1 0.00 0.00 0.00 72 1011.8
20260903181842 31 61 8.0 17.7 0.00 0.00 0.00 77 1011.8
20260903181838 31 79 6.4 17.7 0.00 0.00 0.00 75 1011.7
20260903180836 31 92 6.4 17.7 0.00 0.00 0.00 78 1011.9
20260903180335 31 119 9.7 24.1 0.00 0.00 0.00 76 1011.9
20260903175832 31 117 9.7 24.1 0.00 0.00 0.00 76 1012.0
20260903175332 32 123 4.8 20.9 0.00 0.00 0.00 73 1012.1
20260903174830 32 92 3.2 9.7 0.00 0.00 0.00 74 1012.2
20260903174327 31 98 4.8 12.9 0.00 0.00 0.00 75 1012.3
20260903173828 31 35 8.0 19.3 0.00 0.00 0.00 76 1012.3
20260903173329 31 130 6.4 19.3 0.00 0.00 0.00 76 1012.4
20260903172820 31 113 1.6 17.7 0.00 0.00 0.00 70 1012.4
20260903172320 31 225 1.6 6.4 0.00 0.00 0.00 65 1012.5
20260903171814 31 268 1.6 6.4 0.00 0.00 0.00 65 1012.6
20260903171544 31 277 0.0 3.2 0.00 0.00 0.00 65 1012.5
20260903170810 31 271 4.8 16.1 0.00 0.00 0.00 70 1012.5
20260903170259 30 172 9.7 20.9 0.00 0.00 0.00 73 1012.6
20260903165756 31 266 8.0 20.9 0.00 0.00 0.00 71 1012.8
20260903165308 31 272 4.8 9.7 0.00 0.00 0.00 71 1012.8
20260903164754 31 259 4.8 9.7 0.00 0.00 0.00 70 1012.7
20260903164254 32 271 4.8 9.7 0.00 0.00 0.00 69 1012.8
20260903164025 32 265 4.8 9.7 0.00 0.00 0.00 68 1012.8
20260903163522 32 151 4.8 14.5 0.00 0.00 0.00 67 1013.0
20260903162752 32 262 6.4 16.1 0.00 0.00 0.00 67 1013.1
20260903162251 32 122 4.8 16.1 0.00 0.00 0.00 68 1013.2
20260903161752 32 146 4.8 16.1 0.00 0.00 0.00 68 1013.2
20260903161248 32 275 3.2 16.1 0.00 0.00 0.00 66 1013.2
20260903160736 32 120 3.2 9.7 0.00 0.00 0.00 68 1013.2
20260903160223 32 233 4.8 11.3 0.00 0.00 0.00 70 1013.3
20260903155724 31 172 3.2 11.3 0.00 0.00 0.00 68 1013.3
20260903155224 31 240 3.2 9.7 0.00 0.00 0.00 71 1013.4
20260903154722 31 225 4.8 9.7 0.00 0.00 0.00 69 1013.3
20260903154220 31 275 6.4 14.5 0.00 0.00 0.00 72 1013.3
20260903153720 31 224 4.8 14.5 0.00 0.00 0.00 71 1013.4
20260903153219 31 242 3.2 11.3 0.00 0.00 0.00 70 1013.5
20260903152730 31 126 3.2 9.7 0.00 0.00 0.00 73 1013.4
20260903152215 31 234 3.2 14.5 0.00 0.00 0.00 74 1013.5
20260903151716 30 171 4.8 14.5 0.00 0.00 0.00 74 1013.6
20260903151215 30 194 4.8 14.5 0.00 0.00 0.00 75 1013.5
20260903150715 30 247 6.4 14.5 0.00 0.00 0.00 76 1013.5
20260903150216 30 217 6.4 14.5 0.00 0.00 0.00 76 1013.5
20260903145944 30 156 6.4 14.5 0.00 0.00 0.00 78 1013.4
20260903145212 30 149 4.8 16.1 0.00 0.00 0.00 79 1013.4
20260903144711 30 177 4.8 16.1 0.00 0.00 0.00 78 1013.4
20260903144212 30 155 4.8 14.5 0.00 0.00 0.00 79 1013.4
20260903143943 30 141 4.8 14.5 0.00 0.00 0.00 79 1013.5
20260903143211 30 132 3.2 9.7 0.00 0.00 0.00 79 1013.4
20260903142708 30 206 3.2 9.7 0.00 0.00 0.00 78 1013.4
20260903142207 30 132 3.2 8.0 0.00 0.00 0.00 79 1013.4
20260903141708 30 175 3.2 8.0 0.00 0.00 0.00 79 1013.3